Home   Weather   Paradise   Past weeks

Flag for USA Past Weather in Paradise, California, USA — Yesterday and Last 2 Weeks

59 °F

Low clouds.

Feels Like: 60 °F
Forecast: 54 / 58 °F
Wind: 3 mph from Southwest

Location: Chico Municipal

Current Time: Oct 27, 2016 at 11:34:41 PM

Latest Report: Oct 27, 2016 at 10:55 PM

Visibility: 10 mi

Pressure: 29.98 "Hg (28.16 "Hg at 527m altitude)

Humidity: 100%

Dew Point: 59 °F

Location of ParadiseLocation

Past Weather in Paradise — Graph


Paradise Temperature Yesterday

Maximum temperature yesterday: 73 °F (at 2:50 PM)
Minimum temperature yesterday: 59 °F (at 2:35 AM)
Average temperature yesterday: 65 °F

High & Low Weather Summary for the Past Weeks

High77 °F (Oct 20, 3:53 PM)100% (Oct 14, 5:35 AM)30.25 "Hg (Oct 14, 5:35 AM)
Low46 °F (Oct 19, 4:55 AM)27% (Oct 19, 2:58 PM)29.62 "Hg (Oct 16, 3:55 PM)
Average61 °F73%29.97 "Hg
* Reported Oct 12 10:15 PM — Oct 27 10:35 PM, Paradise, Weather by CustomWeather, © 2016

Note: Actual official high and low records may vary slightly from our data, if they occured in-between our weather recording intervals... More about our weather records


Paradise Weather History for the Previous 24 Hours

Scroll right to see more
Time TempWeatherWind HumidityBarometerVisibility
10:35 PM
Thu, Oct 27
59 °FMostly cloudy.3 mph100%29.98 "Hg10 mi
10:15 PM59 °FMostly cloudy.3 mph100%29.98 "Hg10 mi
9:55 PM59 °FMostly cloudy.3 mph100%29.98 "Hg10 mi
9:35 PM59 °FMostly cloudy.6 mph100%29.98 "Hg5 mi
9:15 PM59 °FLow clouds.3 mph100%29.98 "Hg2 mi
8:55 PM59 °FLow clouds.No wind100%29.99 "Hg10 mi
8:35 PM59 °FLow clouds.5 mph100%29.99 "Hg10 mi
8:15 PM59 °FMostly cloudy.3 mph100%29.99 "Hg10 mi
7:55 PM59 °FOvercast.7 mph100%29.98 "Hg10 mi
7:35 PM59 °FMostly cloudy.9 mph100%29.98 "Hg10 mi
7:15 PM59 °FOvercast.9 mph100%29.97 "Hg10 mi
6:55 PM59 °FMostly cloudy.10 mph100%29.97 "Hg10 mi
6:35 PM61 °FMostly cloudy.16 mph94%29.96 "Hg10 mi
6:15 PM63 °FMostly cloudy.16 mph88%29.97 "Hg10 mi
5:55 PM63 °FMostly cloudy.9 mph77%29.96 "Hg10 mi
4:52 PM63 °FOvercast.12 mph77%29.95 "Hg10 mi
3:50 PM63 °FLight rain. Overcast.7 mph83%29.95 "Hg10 mi
2:55 PM63 °FLight rain. Mostly cloudy.14 mph88%29.96 "Hg10 mi
1:52 PM59 °FFog.8 mph100%29.97 "Hg4 mi
12:51 PM59 °FFog.17 mph94%29.99 "Hg2 mi
11:51 AM64 °FLight rain. Mostly cloudy.12 mph68%29.98 "Hg10 mi
10:51 AM63 °FLight rain. Overcast.7 mph73%29.98 "Hg40 mi
9:47 AM59 °FLight rain. Overcast.9 mph88%30.00 "Hg10 mi
8:55 AM57 °FLight rain. Mostly cloudy.6 mph100%29.98 "Hg10 mi
7:55 AM59 °FLight rain. Mostly cloudy.6 mph94%29.94 "Hg10 mi
6:55 AM59 °FOvercast.No wind82%29.95 "Hg10 mi
5:35 AM63 °FOvercast.8 mph73%29.95 "Hg10 mi
5:15 AM63 °FOvercast.6 mph73%29.93 "Hg10 mi
4:55 AM63 °FPartly cloudy.8 mph73%29.92 "Hg10 mi
4:35 AM63 °FPartly cloudy.6 mph73%29.92 "Hg10 mi
4:15 AM63 °FMostly cloudy.7 mph73%29.94 "Hg10 mi
3:55 AM66 °FOvercast.6 mph56%29.94 "Hg10 mi
3:35 AM64 °FMostly cloudy.9 mph60%29.95 "Hg10 mi
3:15 AM64 °FOvercast.9 mph60%29.96 "Hg10 mi
2:55 AM64 °FMostly cloudy.9 mph60%29.97 "Hg10 mi
2:35 AM64 °FOvercast.9 mph60%29.98 "Hg10 mi
2:15 AM64 °FOvercast.9 mph60%29.98 "Hg10 mi
1:55 AM63 °FOvercast.5 mph68%29.99 "Hg10 mi
1:35 AM61 °FOvercast.7 mph72%29.98 "Hg10 mi
1:15 AM59 °FPartly cloudy.7 mph77%29.98 "Hg10 mi
12:55 AM59 °FPassing clouds.6 mph82%29.98 "Hg10 mi
12:35 AM59 °FPassing clouds.6 mph82%29.98 "Hg10 mi
12:15 AM61 °FPassing clouds.5 mph77%29.98 "Hg10 mi
11:55 PM
Wed, Oct 26
59 °FPassing clouds.No wind82%29.98 "Hg10 mi
11:35 PM59 °FClear.5 mph82%29.97 "Hg10 mi
11:15 PM61 °FClear.No wind83%29.98 "Hg10 mi
Weather by CustomWeather, © 2016

See weather overviewHow to use our weather pages